STARLINK-34537, 64778

Orbit data source: Space-Track

STARLINK-34537, 64778 is a payload satellite owned by SpaceX/Seattle (US) in LEO that was launched on Tue, 08 Jul 2025 UTC via an FALCON 9 launch vehicle from the Air Force Eastern Test Range (AFETR). Payload-class satellites include a variety of spacecraft equipped with specific instruments for various scientific and technological missions. These include communications satellites like Starlink; space stations such as the ISS; scientific satellites like the Hubble; Earth observation satellites from companies like Planet Labs, Umbra, and HawkEye 360; GPS; miniature CubeSats for education and research; and military/defense satellites.

Loading next visibility...
Identifier
64778, 2025-147Z
Orbit
LEO
Country
Flag of USUS
Related business
Manufacturer
SpaceX/Seattle
Mission
Operational Commercial Communications
Bus & Motor
STARLINK V2MO, Unknown motor
Mass
575 kg wet, ~530 kg dry
Launch date (UTC)
2025-07-08 (11 months ago)
Launch vehicle
FALCON 9
Launch site
Air Force Eastern Test Range (AFETR)
Object type
Payload
Rocket body
Debris
Shape & HBR
Box + 2 Pan, 17.7 m
Radar Cross Section
36.964 m², Large (>1 m²)

Expand to show TLE details & history
Last TLE update: 1 day ago

TLE from 1 day ago
0 STARLINK-34537
1 64778U 25147Z   26170.54226000  .00008451  00000-0  29702-3 0  9997
2 64778  53.1597 106.7746 0001682  70.1118 290.0064 15.30210563 54691
Epoch: 2026-06-19T13:00Z
TLE epoch observation values (Epoch: 2026-06-19T13:00:51.264Z)
Latitude
0.00001°
Longitude
3.79127°
Altitude
475.689 km
Speed
7.629 km/s
True Right ascension
07h 07m 05s
True Declination
0° 00' 00"
Sunlit
Object was in daylight at epoch
Visualization orbit readout
Latitude
Unknown
Longitude
Unknown
Altitude
Unknown
Speed
Unknown
Apparent Right ascension
Unknown
Apparent Declination
Unknown
Sunlit
N/A
Visualization observer readout
Local Sidereal Time
10:19:46
Azimuth
Unknown
Elevation
Unknown
Doppler factor
Unknown
Orbital elements
Apogee altitude
476.593 km
Perigee altitude
474.287 km
Semi-major axis
6,853.577 km
Eccentricity
0.00017
Inclination
53.1597°
RAAN
106.7746°
Arg. of periapsis
70.1118°
True anomaly
289.98829°
Mean anomaly
290.0064°
Eccentric anomaly
289.99734°
Mean motion
3.82532 °/min
Orbital period
94.11 mins
BSTAR
0.00029702
Loading maneuver chart data...
Computing Atmospheric mass density...
Loading historical data...
Loading historical data...
Loading historical data...
Loading historical data...
Loading historical data...
Loading historical data...
Loading historical data...

Documentation

Showing up to 5 results
|